Time,TemperatureF,DewpointF,PressureIn,WindDirection,WindDirectionDegrees,WindSpeedMPH,WindSpeedGustMPH,Humidity,HourlyPrecipIn,Conditions,Clouds,dailyrainin,SoftwareType,DateUTC
2013-07-05 00:01:00,79.3,79.3,30.12,SSW,201,6.1,10.4,100,0.00,CLR,,0.00,WeatherDisplay:10.37,2013-07-05 04:01:00,
2013-07-05 00:02:00,79.2,79.2,30.12,SW,226,4.8,10.4,100,0.00,CLR,,0.00,WeatherDisplay:10.37,2013-07-05 04:02:00,
2013-07-05 00:07:00,79.0,79.0,30.12,SSW,208,4.2,6.9,100,0.00,CLR,,0.00,WeatherDisplay:10.37,2013-07-05 04:07:00,
2013-07-05 00:12:00,79.0,79.0,30.12,WSW,254,3.6,9.2,100,0.00,CLR,,0.00,WeatherDisplay:10.37,2013-07-05 04:12:00,
2013-07-05 00:17:00,78.9,78.9,30.12,SSW,194,4.1,6.9,100,0.00,CLR,,0.00,WeatherDisplay:10.37,2013-07-05 04:17:00,
2013-07-05 00:22:00,79.0,79.0,30.12,South,183,7.0,9.2,100,0.00,CLR,,0.00,WeatherDisplay:10.37,2013-07-05 04:22:00,
2013-07-05 00:27:00,78.7,78.7,30.12,SW,219,6.9,11.5,100,0.00,CLR,,0.00,WeatherDisplay:10.37,2013-07-05 04:27:00,
2013-07-05 00:32:00,78.8,78.8,30.12,WSW,246,4.9,6.0,100,0.00,CLR,,0.00,WeatherDisplay:10.37,2013-07-05 04:32:00,
2013-07-05 00:37:00,78.6,78.6,30.12,WSW,237,5.0,5.0,100,0.00,CLR,,0.00,WeatherDisplay:10.37,2013-07-05 04:37:00,
2013-07-05 00:43:00,78.6,78.6,30.12,WSW,246,3.3,9.2,100,0.00,CLR,,0.00,WeatherDisplay:10.37,2013-07-05 04:43:00,
2013-07-05 00:48:00,78.5,78.2,30.12,South,172,3.9,6.9,99,0.00,CLR,,0.00,WeatherDisplay:10.37,2013-07-05 04:48:00,
2013-07-05 00:53:00,78.3,78.0,30.12,WSW,247,2.5,9.2,99,0.00,CLR,,0.00,WeatherDisplay:10.37,2013-07-05 04:53:00,
2013-07-05 00:58:00,78.1,76.9,30.12,SW,235,2.7,5.8,96,0.00,CLR,,0.00,WeatherDisplay:10.37,2013-07-05 04:58:00,
2013-07-05 01:03:00,78.1,76.9,30.12,West,261,5.6,10.0,96,0.00,CLR,,0.00,WeatherDisplay:10.37,2013-07-05 05:03:00,
2013-07-05 01:08:00,78.0,76.5,30.12,West,281,6.8,10.4,95,0.00,CLR,,0.00,WeatherDisplay:10.37,2013-07-05 05:08:00,
2013-07-05 01:13:00,78.0,76.1,30.12,WNW,298,4.9,10.4,94,0.00,CLR,,0.00,WeatherDisplay:10.37,2013-07-05 05:13:00,
2013-07-05 01:19:00,78.0,76.1,30.12,SW,226,5.0,12.0,94,0.00,CLR,,0.00,WeatherDisplay:10.37,2013-07-05 05:19:00,
2013-07-05 01:24:00,77.8,75.9,30.12,SW,225,7.0,13.0,94,0.00,CLR,,0.00,WeatherDisplay:10.37,2013-07-05 05:24:00,
2013-07-05 01:29:00,77.9,76.0,30.12,SW,234,4.4,11.0,94,0.00,CLR,,0.00,WeatherDisplay:10.37,2013-07-05 05:29:00,
2013-07-05 01:34:00,77.8,76.0,30.12,SW,223,5.0,12.0,94,0.00,CLR,CLR,0.00,WeatherDisplay:10.37,2013-07-05 05:34:00,
2013-07-05 01:39:00,77.8,75.9,30.12,SW,229,7.0,12.0,94,0.00,CLR,CLR,0.00,WeatherDisplay:10.37,2013-07-05 05:39:00,
2013-07-05 01:44:00,77.8,75.9,30.11,SW,234,3.0,12.0,94,0.00,CLR,CLR,0.00,WeatherDisplay:10.37,2013-07-05 05:44:00,
2013-07-05 01:49:00,77.6,75.8,30.11,SW,231,6.0,10.0,94,0.00,CLR,CLR,0.00,WeatherDisplay:10.37,2013-07-05 05:49:00,
2013-07-05 01:54:00,77.6,75.8,30.11,SW,225,2.0,9.0,94,0.00,CLR,CLR,0.00,WeatherDisplay:10.37,2013-07-05 05:54:00,
2013-07-05 01:59:00,77.6,75.7,30.11,SW,231,4.0,9.2,94,0.00,CLR,,0.00,WeatherDisplay:10.37,2013-07-05 05:59:00,
2013-07-05 02:04:00,77.6,75.8,30.11,SW,221,5.0,10.0,94,0.00,CLR,CLR,0.00,WeatherDisplay:10.37,2013-07-05 06:04:00,
2013-07-05 02:09:00,77.4,75.6,30.11,SW,228,6.0,8.0,94,0.00,CLR,CLR,0.00,WeatherDisplay:10.37,2013-07-05 06:09:00,
2013-07-05 02:14:00,77.5,75.6,30.12,SW,227,6.0,10.0,94,0.00,CLR,CLR,0.00,WeatherDisplay:10.37,2013-07-05 06:14:00,
2013-07-05 02:19:00,77.4,75.6,30.11,SW,215,2.0,12.0,94,0.00,CLR,CLR,0.00,WeatherDisplay:10.37,2013-07-05 06:19:00,
2013-07-05 02:24:00,77.4,75.5,30.11,SW,220,6.0,12.0,94,0.00,CLR,CLR,0.00,WeatherDisplay:10.37,2013-07-05 06:24:00,
2013-07-05 02:29:00,77.4,75.5,30.11,SW,225,3.0,15.0,94,0.00,CLR,CLR,0.00,WeatherDisplay:10.37,2013-07-05 06:29:00,
2013-07-05 02:34:00,77.4,75.5,30.11,SW,223,6.0,12.0,94,0.00,CLR,CLR,0.00,WeatherDisplay:10.37,2013-07-05 06:34:00,
2013-07-05 02:39:00,77.2,75.3,30.11,SW,221,3.0,12.0,94,0.00,CLR,CLR,0.00,WeatherDisplay:10.37,2013-07-05 06:39:00,
2013-07-05 02:44:00,77.2,75.7,30.11,SW,220,5.0,12.0,95,0.00,CLR,CLR,0.00,WeatherDisplay:10.37,2013-07-05 06:44:00,
2013-07-05 02:49:00,77.2,75.3,30.11,SW,221,5.0,10.0,94,0.00,CLR,CLR,0.00,WeatherDisplay:10.37,2013-07-05 06:49:00,
2013-07-05 02:54:00,77.1,75.2,30.11,SW,233,2.0,13.0,94,0.00,CLR,CLR,0.00,WeatherDisplay:10.37,2013-07-05 06:54:00,
2013-07-05 02:59:00,77.0,75.5,30.11,WSW,242,3.0,9.0,95,0.00,CLR,CLR,0.00,WeatherDisplay:10.37,2013-07-05 06:59:00,
2013-07-05 03:04:00,76.8,75.3,30.11,WSW,238,5.0,9.0,95,0.00,CLR,CLR,0.00,WeatherDisplay:10.37,2013-07-05 07:04:00,
2013-07-05 03:09:00,76.9,75.3,30.12,WSW,238,5.0,9.0,95,0.00,CLR,CLR,0.00,WeatherDisplay:10.37,2013-07-05 07:09:00,
2013-07-05 03:14:00,76.8,75.2,30.11,SW,223,3.0,9.0,95,0.00,CLR,CLR,0.00,WeatherDisplay:10.37,2013-07-05 07:14:00,
2013-07-05 03:19:00,76.8,75.3,30.11,SW,228,5.0,12.0,95,0.00,CLR,CLR,0.00,WeatherDisplay:10.37,2013-07-05 07:19:00,
2013-07-05 03:24:00,76.7,75.1,30.11,SW,228,2.0,6.0,95,0.00,CLR,CLR,0.00,WeatherDisplay:10.37,2013-07-05 07:24:00,
2013-07-05 03:29:00,76.6,75.0,30.12,SW,214,2.0,6.0,95,0.00,CLR,CLR,0.00,WeatherDisplay:10.37,2013-07-05 07:29:00,
2013-07-05 03:34:00,76.5,75.3,30.11,SW,218,5.0,7.0,96,0.00,CLR,CLR,0.00,WeatherDisplay:10.37,2013-07-05 07:34:00,
2013-07-05 03:39:00,76.5,75.2,30.11,SW,228,2.0,8.0,96,0.00,CLR,CLR,0.00,WeatherDisplay:10.37,2013-07-05 07:39:00,
2013-07-05 03:45:00,76.3,75.1,30.12,SW,224,4.2,9.0,96,0.00,CLR,,0.00,WeatherDisplay:10.37,2013-07-05 07:45:00,
2013-07-05 03:50:00,76.4,75.2,30.11,SW,217,1.5,3.5,96,0.00,CLR,,0.00,WeatherDisplay:10.37,2013-07-05 07:50:00,
2013-07-05 03:55:00,76.3,74.8,30.11,WSW,239,3.9,4.6,95,0.00,CLR,,0.00,WeatherDisplay:10.37,2013-07-05 07:55:00,
2013-07-05 04:00:00,76.3,75.1,30.12,SW,223,4.0,5.0,96,0.00,CLR,,0.00,WeatherDisplay:10.37,2013-07-05 08:00:00,
2013-07-05 04:05:00,76.2,75.0,30.11,WSW,247,6.1,9.2,96,0.00,CLR,,0.00,WeatherDisplay:10.37,2013-07-05 08:05:00,
2013-07-05 04:10:00,76.4,75.2,30.12,SW,233,4.6,10.4,96,0.00,CLR,,0.00,WeatherDisplay:10.37,2013-07-05 08:10:00,
2013-07-05 04:16:00,76.3,75.1,30.12,West,278,4.0,7.0,96,0.00,CLR,,0.00,WeatherDisplay:10.37,2013-07-05 08:16:00,
2013-07-05 04:21:00,76.4,75.2,30.12,West,265,4.8,8.0,96,0.00,CLR,,0.00,WeatherDisplay:10.37,2013-07-05 08:21:00,
2013-07-05 04:26:00,76.2,75.0,30.11,SW,231,1.8,3.5,96,0.00,CLR,,0.00,WeatherDisplay:10.37,2013-07-05 08:26:00,
2013-07-05 04:31:00,76.1,74.9,30.11,WSW,243,1.6,5.0,96,0.00,CLR,,0.00,WeatherDisplay:10.37,2013-07-05 08:31:00,
2013-07-05 04:36:00,76.1,75.2,30.11,SSW,196,4.3,8.1,97,0.00,CLR,,0.00,WeatherDisplay:10.37,2013-07-05 08:36:00,
2013-07-05 04:42:00,76.0,74.8,30.12,SW,231,4.1,6.9,96,0.00,CLR,,0.00,WeatherDisplay:10.37,2013-07-05 08:42:00,
2013-07-05 04:47:00,76.1,74.9,30.12,WSW,243,4.0,8.0,96,0.00,CLR,,0.00,WeatherDisplay:10.37,2013-07-05 08:47:00,
2013-07-05 04:52:00,76.0,74.8,30.12,SW,215,2.9,10.4,96,0.00,CLR,,0.00,WeatherDisplay:10.37,2013-07-05 08:52:00,
2013-07-05 04:57:00,75.9,74.7,30.12,NW,307,3.1,11.5,96,0.00,CLR,,0.00,WeatherDisplay:10.37,2013-07-05 08:57:00,
2013-07-05 05:02:00,75.8,74.6,30.12,WSW,254,5.4,10.4,96,0.00,CLR,,0.00,WeatherDisplay:10.37,2013-07-05 09:02:00,
2013-07-05 05:08:00,75.9,75.0,30.12,WSW,249,4.2,8.1,97,0.00,CLR,,0.00,WeatherDisplay:10.37,2013-07-05 09:08:00,
2013-07-05 05:13:00,75.8,74.9,30.12,SSW,212,3.4,8.1,97,0.00,CLR,,0.00,WeatherDisplay:10.37,2013-07-05 09:13:00,
2013-07-05 05:19:00,75.6,74.7,30.13,WSW,237,3.5,5.8,97,0.00,CLR,,0.00,WeatherDisplay:10.37,2013-07-05 09:19:00,
2013-07-05 05:24:00,75.6,74.7,30.13,SW,231,2.0,3.5,97,0.00,CLR,,0.00,WeatherDisplay:10.37,2013-07-05 09:24:00,
2013-07-05 05:29:00,75.7,74.8,30.13,WSW,244,1.9,6.9,97,0.00,CLR,,0.00,WeatherDisplay:10.37,2013-07-05 09:29:00,
2013-07-05 05:34:00,75.8,74.9,30.13,SW,232,2.6,5.8,97,0.00,CLR,,0.00,WeatherDisplay:10.37,2013-07-05 09:34:00,
2013-07-05 05:39:00,75.7,74.8,30.14,SW,226,1.0,4.0,97,0.00,CLR,CLR,0.00,WeatherDisplay:10.37,2013-07-05 09:39:00,
2013-07-05 05:44:00,75.7,74.8,30.14,SW,232,3.0,7.0,97,0.00,CLR,CLR,0.00,WeatherDisplay:10.37,2013-07-05 09:44:00,
2013-07-05 05:50:00,75.7,75.1,30.14,SW,235,3.2,5.8,98,0.00,CLR,,0.00,WeatherDisplay:10.37,2013-07-05 09:50:00,
2013-07-05 05:55:00,75.8,74.9,30.14,SW,226,5.3,10.4,97,0.00,CLR,,0.00,WeatherDisplay:10.37,2013-07-05 09:55:00,
2013-07-05 06:00:00,75.7,74.8,30.14,WNW,303,2.4,4.6,97,0.00,CLR,,0.00,WeatherDisplay:10.37,2013-07-05 10:00:00,
2013-07-05 06:05:00,76.0,75.1,30.14,SW,225,3.2,5.8,97,0.00,CLR,,0.00,WeatherDisplay:10.37,2013-07-05 10:05:00,
2013-07-05 06:11:00,76.1,75.2,30.14,WSW,238,2.4,4.6,97,0.00,CLR,,0.00,WeatherDisplay:10.37,2013-07-05 10:11:00,
2013-07-05 06:16:00,76.1,74.9,30.14,West,261,1.4,6.9,96,0.00,CLR,,0.00,WeatherDisplay:10.37,2013-07-05 10:16:00,
2013-07-05 06:21:00,76.3,75.4,30.14,SSW,209,3.1,5.8,97,0.00,CLR,,0.00,WeatherDisplay:10.37,2013-07-05 10:21:00,
2013-07-05 06:27:00,76.3,75.1,30.14,SW,235,2.0,6.9,96,0.00,CLR,,0.00,WeatherDisplay:10.37,2013-07-05 10:27:00,
2013-07-05 06:32:00,76.5,75.3,30.14,SW,223,1.4,4.0,96,0.00,CLR,,0.00,WeatherDisplay:10.37,2013-07-05 10:32:00,
2013-07-05 06:37:00,76.5,75.3,30.15,South,190,2.4,5.0,96,0.00,CLR,,0.00,WeatherDisplay:10.37,2013-07-05 10:37:00,
2013-07-05 06:43:00,76.8,75.6,30.15,WSW,248,3.7,8.1,96,0.00,CLR,,0.00,WeatherDisplay:10.37,2013-07-05 10:43:00,
2013-07-05 06:48:00,76.9,75.4,30.14,WSW,249,3.9,6.0,95,0.00,CLR,,0.00,WeatherDisplay:10.37,2013-07-05 10:48:00,
2013-07-05 06:53:00,77.1,75.6,30.14,WSW,241,4.2,6.9,95,0.00,CLR,,0.00,WeatherDisplay:10.37,2013-07-05 10:53:00,
2013-07-05 06:58:00,77.4,75.9,30.15,SW,224,2.7,4.0,95,0.00,CLR,,0.00,WeatherDisplay:10.37,2013-07-05 10:58:00,
2013-07-05 07:03:00,77.6,75.7,30.15,SW,235,3.5,6.9,94,0.00,CLR,,0.00,WeatherDisplay:10.37,2013-07-05 11:03:00,
2013-07-05 07:09:00,77.7,75.8,30.15,SW,217,0.4,2.3,94,0.00,CLR,,0.00,WeatherDisplay:10.37,2013-07-05 11:09:00,
2013-07-05 07:14:00,78.0,76.1,30.15,SW,234,3.0,6.0,94,0.00,CLR,CLR,0.00,WeatherDisplay:10.37,2013-07-05 11:14:00,
2013-07-05 07:19:00,78.2,76.4,30.15,SW,225,2.0,6.0,94,0.00,CLR,CLR,0.00,WeatherDisplay:10.37,2013-07-05 11:19:00,
2013-07-05 07:24:00,78.3,76.1,30.15,WSW,238,2.2,4.0,93,0.00,CLR,,0.00,WeatherDisplay:10.37,2013-07-05 11:24:00,
2013-07-05 07:29:00,78.6,76.1,30.15,SW,229,2.0,7.0,92,0.00,CLR,CLR,0.00,WeatherDisplay:10.37,2013-07-05 11:29:00,
2013-07-05 07:34:00,78.8,76.3,30.15,SW,226,1.0,8.0,92,0.00,CLR,CLR,0.00,WeatherDisplay:10.37,2013-07-05 11:34:00,
2013-07-05 07:39:00,79.1,76.2,30.15,SW,220,3.0,9.0,91,0.00,CLR,CLR,0.00,WeatherDisplay:10.37,2013-07-05 11:39:00,
2013-07-05 07:44:00,79.4,76.6,30.15,SW,224,5.0,8.0,91,0.00,CLR,CLR,0.00,WeatherDisplay:10.37,2013-07-05 11:44:00,
2013-07-05 07:49:00,79.6,76.7,30.15,SW,217,2.0,7.0,91,0.00,CLR,CLR,0.00,WeatherDisplay:10.37,2013-07-05 11:49:00,
2013-07-05 07:54:00,80.0,76.8,30.15,SW,217,3.0,8.0,90,0.00,CLR,CLR,0.00,WeatherDisplay:10.37,2013-07-05 11:54:00,
2013-07-05 07:59:00,80.3,77.1,30.15,SW,226,5.0,7.0,90,0.00,CLR,CLR,0.00,WeatherDisplay:10.37,2013-07-05 11:59:00,
2013-07-05 08:04:00,80.6,76.7,30.15,SW,224,5.0,8.0,88,0.00,CLR,CLR,0.00,WeatherDisplay:10.37,2013-07-05 12:04:00,
2013-07-05 08:09:00,80.9,77.0,30.15,SW,230,1.0,8.0,88,0.00,CLR,CLR,0.00,WeatherDisplay:10.37,2013-07-05 12:09:00,
2013-07-05 08:14:00,81.4,77.1,30.15,WSW,239,2.0,6.0,87,0.00,CLR,CLR,0.00,WeatherDisplay:10.37,2013-07-05 12:14:00,
2013-07-05 08:19:00,81.7,77.1,30.15,SW,234,2.0,4.0,86,0.00,CLR,CLR,0.00,WeatherDisplay:10.37,2013-07-05 12:19:00,
2013-07-05 08:24:00,81.9,77.3,30.15,West,281,2.0,6.0,86,0.00,CLR,CLR,0.00,WeatherDisplay:10.37,2013-07-05 12:24:00,
2013-07-05 08:29:00,82.1,77.1,30.15,WSW,247,6.0,9.0,85,0.00,CLR,CLR,0.00,WeatherDisplay:10.37,2013-07-05 12:29:00,
2013-07-05 08:34:00,82.3,77.3,30.15,SW,233,2.0,7.0,85,0.00,CLR,CLR,0.00,WeatherDisplay:10.37,2013-07-05 12:34:00,
2013-07-05 08:39:00,82.5,77.5,30.15,SW,230,5.0,8.0,85,0.00,CLR,CLR,0.00,WeatherDisplay:10.37,2013-07-05 12:39:00,
2013-07-05 08:45:00,82.6,77.6,30.15,SSW,195,2.2,9.2,85,0.00,CLR,,0.00,WeatherDisplay:10.37,2013-07-05 12:45:00,
2013-07-05 08:50:00,82.9,77.9,30.15,SW,217,4.4,6.9,85,0.00,CLR,,0.00,WeatherDisplay:10.37,2013-07-05 12:50:00,
2013-07-05 08:55:00,83.0,77.7,30.15,WNW,285,0.5,5.8,84,0.00,CLR,,0.00,WeatherDisplay:10.37,2013-07-05 12:55:00,
2013-07-05 09:00:00,83.3,77.6,30.15,SSW,202,1.5,6.9,83,0.00,CLR,,0.00,WeatherDisplay:10.37,2013-07-05 13:00:00,
2013-07-05 09:06:00,84.2,78.1,30.15,SW,225,1.2,4.6,82,0.00,CLR,,0.00,WeatherDisplay:10.37,2013-07-05 13:06:00,
2013-07-05 09:11:00,84.9,78.4,30.14,South,182,0.6,3.5,81,0.00,CLR,,0.00,WeatherDisplay:10.37,2013-07-05 13:11:00,
2013-07-05 09:16:00,85.5,78.6,30.14,SSW,210,0.3,2.3,80,0.00,CLR,,0.00,WeatherDisplay:10.37,2013-07-05 13:16:00,
2013-07-05 09:22:00,86.3,79.4,30.14,WSW,254,1.6,4.6,80,0.00,CLR,,0.00,WeatherDisplay:10.37,2013-07-05 13:22:00,
2013-07-05 09:27:00,86.9,78.4,30.14,SSW,195,1.0,5.0,76,0.00,CLR,,0.00,WeatherDisplay:10.37,2013-07-05 13:27:00,
2013-07-05 09:32:00,87.4,78.5,30.14,NW,320,0.3,2.3,75,0.00,CLR,,0.00,WeatherDisplay:10.37,2013-07-05 13:32:00,
2013-07-05 09:38:00,87.9,79.4,30.14,South,171,2.7,6.9,76,0.00,CLR,,0.00,WeatherDisplay:10.37,2013-07-05 13:38:00,
2013-07-05 09:43:00,88.2,79.7,30.14,South,180,0.6,2.0,76,0.00,CLR,,0.00,WeatherDisplay:10.37,2013-07-05 13:43:00,
2013-07-05 09:48:00,88.3,79.0,30.13,WSW,237,2.6,5.0,74,0.00,CLR,,0.00,WeatherDisplay:10.37,2013-07-05 13:48:00,
2013-07-05 09:53:00,88.4,79.1,30.14,WSW,250,4.9,9.0,74,0.00,CLR,,0.00,WeatherDisplay:10.37,2013-07-05 13:53:00,
2013-07-05 09:58:00,88.7,78.9,30.13,WSW,242,2.5,5.8,73,0.00,CLR,,0.00,WeatherDisplay:10.37,2013-07-05 13:58:00,
2013-07-05 10:04:00,89.0,80.4,30.13,SSE,152,3.2,6.0,76,0.00,CLR,,0.00,WeatherDisplay:10.37,2013-07-05 14:04:00,
2013-07-05 10:09:00,89.3,80.3,30.14,NW,326,0.5,3.5,75,0.00,CLR,,0.00,WeatherDisplay:10.37,2013-07-05 14:09:00,
2013-07-05 10:14:00,89.5,83.6,30.14,SW,215,1.8,6.0,83,0.00,CLR,,0.00,WeatherDisplay:10.37,2013-07-05 14:14:00,
2013-07-05 10:19:00,89.6,83.4,30.14,SW,232,5.0,8.0,82,0.00,CLR,CLR,0.00,WeatherDisplay:10.37,2013-07-05 14:19:00,
2013-07-05 10:24:00,89.6,82.6,30.14,SW,231,2.0,8.0,80,0.00,CLR,CLR,0.00,WeatherDisplay:10.37,2013-07-05 14:24:00,
2013-07-05 10:29:00,89.6,83.0,30.14,SW,226,1.0,12.0,81,0.00,CLR,CLR,0.00,WeatherDisplay:10.37,2013-07-05 14:29:00,
2013-07-05 10:34:00,89.6,82.2,30.14,SW,229,2.0,6.0,79,0.00,CLR,CLR,0.00,WeatherDisplay:10.37,2013-07-05 14:34:00,
2013-07-05 10:39:00,89.8,83.5,30.14,SW,236,2.0,6.0,82,0.00,CLR,CLR,0.00,WeatherDisplay:10.37,2013-07-05 14:39:00,
2013-07-05 10:44:00,90.1,83.1,30.13,SW,235,1.0,5.0,80,0.00,CLR,CLR,0.00,WeatherDisplay:10.37,2013-07-05 14:44:00,
2013-07-05 10:49:00,90.0,82.6,30.13,SW,226,2.0,6.0,79,0.00,CLR,CLR,0.00,WeatherDisplay:10.37,2013-07-05 14:49:00,
2013-07-05 10:55:00,90.3,83.3,30.13,SSE,150,2.3,6.0,80,0.00,CLR,,0.00,WeatherDisplay:10.37,2013-07-05 14:55:00,
2013-07-05 11:00:00,90.4,82.6,30.13,North,0,1.5,4.6,78,0.00,CLR,,0.00,WeatherDisplay:10.37,2013-07-05 15:00:00,
2013-07-05 11:06:00,90.5,83.5,30.12,SW,228,1.4,4.6,80,0.00,CLR,,0.00,WeatherDisplay:10.37,2013-07-05 15:06:00,
2013-07-05 11:11:00,90.1,82.7,30.12,South,183,2.6,6.0,79,0.00,CLR,,0.00,WeatherDisplay:10.37,2013-07-05 15:11:00,
2013-07-05 11:16:00,90.5,83.9,30.12,SSW,205,1.3,4.0,81,0.00,CLR,,0.00,WeatherDisplay:10.37,2013-07-05 15:16:00,
2013-07-05 11:22:00,90.8,84.9,30.12,SSW,192,3.9,7.0,83,0.00,CLR,,0.00,WeatherDisplay:10.37,2013-07-05 15:22:00,
2013-07-05 11:27:00,90.6,84.3,30.12,SSW,203,3.0,8.1,82,0.00,CLR,,0.00,WeatherDisplay:10.37,2013-07-05 15:27:00,
2013-07-05 11:32:00,90.9,83.5,30.12,WSW,249,0.2,3.5,79,0.00,CLR,,0.00,WeatherDisplay:10.37,2013-07-05 15:32:00,
2013-07-05 11:37:00,91.0,83.6,30.12,SSW,213,5.1,7.0,79,0.00,CLR,,0.00,WeatherDisplay:10.37,2013-07-05 15:37:00,
2013-07-05 11:42:00,90.9,82.3,30.12,SSW,194,1.8,8.1,76,0.00,CLR,,0.00,WeatherDisplay:10.37,2013-07-05 15:42:00,
2013-07-05 11:47:00,90.9,83.5,30.12,SW,223,3.9,8.1,79,0.00,CLR,,0.00,WeatherDisplay:10.37,2013-07-05 15:47:00,
2013-07-05 11:50:00,91.1,83.7,30.12,WNW,301,1.0,6.9,79,0.00,CLR,,0.00,WeatherDisplay:10.37,2013-07-05 15:50:00,
2013-07-05 11:55:00,91.2,83.4,30.11,West,266,5.0,8.1,78,0.00,CLR,,0.00,WeatherDisplay:10.37,2013-07-05 15:55:00,
2013-07-05 12:00:00,91.2,82.2,30.12,SW,234,1.9,6.9,75,0.00,CLR,,0.00,WeatherDisplay:10.37,2013-07-05 16:00:00,
2013-07-05 12:05:00,91.1,82.5,30.11,SW,219,0.9,5.0,76,0.00,CLR,,0.00,WeatherDisplay:10.37,2013-07-05 16:05:00,
2013-07-05 12:10:00,91.4,83.2,30.11,West,272,2.3,5.8,77,0.00,CLR,,0.00,WeatherDisplay:10.37,2013-07-05 16:10:00,
2013-07-05 12:16:00,91.6,82.5,30.11,SW,232,2.0,4.6,75,0.00,CLR,,0.00,WeatherDisplay:10.37,2013-07-05 16:16:00,
2013-07-05 12:21:00,91.8,82.7,30.11,SSE,155,2.3,8.1,75,0.00,CLR,,0.00,WeatherDisplay:10.37,2013-07-05 16:21:00,
2013-07-05 12:26:00,91.6,81.7,30.11,South,185,2.2,6.0,73,0.00,CLR,,0.00,WeatherDisplay:10.37,2013-07-05 16:26:00,
2013-07-05 12:31:00,91.5,81.6,30.10,WNW,295,0.9,4.6,73,0.00,CLR,,0.00,WeatherDisplay:10.37,2013-07-05 16:31:00,
2013-07-05 12:36:00,91.3,81.4,30.10,West,261,6.1,9.2,73,0.00,CLR,,0.00,WeatherDisplay:10.37,2013-07-05 16:36:00,
2013-07-05 12:41:00,91.4,82.4,30.10,SW,230,2.6,6.9,75,0.00,CLR,,0.00,WeatherDisplay:10.37,2013-07-05 16:41:00,
2013-07-05 12:47:00,91.8,84.4,30.10,SSW,207,4.4,7.0,79,0.00,CLR,,0.00,WeatherDisplay:10.37,2013-07-05 16:47:00,
2013-07-05 12:52:00,91.7,82.2,30.10,WNW,301,2.6,9.2,74,0.00,CLR,,0.00,WeatherDisplay:10.37,2013-07-05 16:52:00,
2013-07-05 12:57:00,91.8,81.0,30.10,SW,214,7.3,11.5,71,0.00,CLR,,0.00,WeatherDisplay:10.37,2013-07-05 16:57:00,
2013-07-05 13:02:00,91.7,80.5,30.10,SW,236,3.9,7.0,70,0.00,CLR,,0.00,WeatherDisplay:10.37,2013-07-05 17:02:00,
2013-07-05 13:07:00,91.5,81.2,30.10,WSW,246,3.6,8.1,72,0.00,CLR,,0.00,WeatherDisplay:10.37,2013-07-05 17:07:00,
2013-07-05 13:12:00,91.9,82.4,30.10,SW,214,0.2,3.5,74,0.00,CLR,,0.00,WeatherDisplay:10.37,2013-07-05 17:12:00,
2013-07-05 13:18:00,92.2,81.9,30.10,South,191,4.5,11.0,72,0.00,CLR,,0.00,WeatherDisplay:10.37,2013-07-05 17:18:00,
2013-07-05 13:23:00,92.2,81.9,30.09,SSW,197,4.5,8.0,72,0.00,CLR,,0.00,WeatherDisplay:10.37,2013-07-05 17:23:00,
2013-07-05 13:28:00,92.4,81.2,30.09,South,181,3.2,9.2,70,0.00,CLR,,0.00,WeatherDisplay:10.37,2013-07-05 17:28:00,
2013-07-05 13:33:00,92.4,81.6,30.09,SW,217,4.2,11.5,71,0.00,CLR,,0.00,WeatherDisplay:10.37,2013-07-05 17:33:00,
2013-07-05 13:38:00,92.5,80.8,30.09,WSW,257,1.9,4.0,69,0.00,CLR,,0.00,WeatherDisplay:10.37,2013-07-05 17:38:00,
2013-07-05 13:44:00,92.4,81.6,30.08,SW,225,3.9,8.1,71,0.00,CLR,,0.00,WeatherDisplay:10.37,2013-07-05 17:44:00,
2013-07-05 13:49:00,92.4,80.7,30.09,South,186,2.9,6.0,69,0.00,CLR,,0.00,WeatherDisplay:10.37,2013-07-05 17:49:00,
2013-07-05 13:54:00,92.4,81.2,30.08,SSW,208,2.6,7.0,70,0.00,CLR,,0.00,WeatherDisplay:10.37,2013-07-05 17:54:00,
2013-07-05 13:59:00,92.8,81.6,30.08,SSW,205,6.7,10.4,70,0.00,CLR,,0.00,WeatherDisplay:10.37,2013-07-05 17:59:00,
2013-07-05 14:04:00,92.8,81.6,30.08,South,185,3.3,8.1,70,0.00,CLR,,0.00,WeatherDisplay:10.37,2013-07-05 18:04:00,
2013-07-05 14:09:00,93.0,81.3,30.08,SW,235,5.6,11.5,69,0.00,CLR,,0.00,WeatherDisplay:10.37,2013-07-05 18:09:00,
2013-07-05 14:11:00,93.1,81.4,30.08,WSW,256,6.1,12.7,69,0.00,CLR,,0.00,WeatherDisplay:10.37,2013-07-05 18:11:00,
2013-07-05 14:16:00,93.2,81.5,30.08,West,271,2.9,8.1,69,0.00,CLR,,0.00,WeatherDisplay:10.37,2013-07-05 18:16:00,
2013-07-05 14:21:00,93.0,81.3,30.08,SSW,210,2.6,11.5,69,0.00,CLR,,0.00,WeatherDisplay:10.37,2013-07-05 18:21:00,
2013-07-05 14:26:00,93.1,82.3,30.08,SSW,196,4.5,9.2,71,0.00,CLR,,0.00,WeatherDisplay:10.37,2013-07-05 18:26:00,
2013-07-05 14:31:00,93.2,81.5,30.08,SW,218,3.7,9.2,69,0.00,CLR,,0.00,WeatherDisplay:10.37,2013-07-05 18:31:00,
2013-07-05 14:36:00,93.0,80.9,30.08,SSW,204,8.0,15.0,68,0.00,CLR,,0.00,WeatherDisplay:10.37,2013-07-05 18:36:00,
2013-07-05 14:41:00,92.8,81.6,30.08,SSE,151,4.1,6.0,70,0.00,CLR,,0.00,WeatherDisplay:10.37,2013-07-05 18:41:00,
2013-07-05 14:46:00,92.7,81.5,30.08,SSW,207,2.4,11.5,70,0.00,CLR,,0.00,WeatherDisplay:10.37,2013-07-05 18:46:00,
2013-07-05 14:51:00,92.7,81.5,30.08,SSW,197,3.1,6.9,70,0.00,CLR,,0.00,WeatherDisplay:10.37,2013-07-05 18:51:00,
2013-07-05 14:57:00,92.9,81.2,30.07,SW,216,3.9,11.0,69,0.00,CLR,,0.00,WeatherDisplay:10.37,2013-07-05 18:57:00,
2013-07-05 15:02:00,92.8,81.1,30.07,WSW,245,5.9,11.5,69,0.00,CLR,,0.00,WeatherDisplay:10.37,2013-07-05 19:02:00,
2013-07-05 15:07:00,92.9,81.7,30.07,SW,227,5.2,8.1,70,0.00,CLR,,0.00,WeatherDisplay:10.37,2013-07-05 19:07:00,
2013-07-05 15:12:00,92.8,81.6,30.06,SW,234,6.5,11.5,70,0.00,CLR,,0.00,WeatherDisplay:10.37,2013-07-05 19:12:00,
2013-07-05 15:17:00,92.9,82.1,30.06,SE,142,4.4,8.1,71,0.00,CLR,,0.00,WeatherDisplay:10.37,2013-07-05 19:17:00,
2013-07-05 15:22:00,93.0,80.4,30.06,West,281,4.4,11.5,67,0.00,CLR,,0.00,WeatherDisplay:10.37,2013-07-05 19:22:00,
2013-07-05 15:27:00,93.1,81.9,30.06,West,259,4.0,8.1,70,0.00,CLR,,0.00,WeatherDisplay:10.37,2013-07-05 19:27:00,
2013-07-05 15:32:00,93.1,81.0,30.06,WSW,239,7.2,10.4,68,0.00,CLR,,0.00,WeatherDisplay:10.37,2013-07-05 19:32:00,
2013-07-05 15:37:00,93.1,81.0,30.05,South,184,5.4,11.0,68,0.00,CLR,,0.00,WeatherDisplay:10.37,2013-07-05 19:37:00,
2013-07-05 15:43:00,93.2,81.1,30.05,WSW,253,5.5,12.0,68,0.00,CLR,,0.00,WeatherDisplay:10.37,2013-07-05 19:43:00,
2013-07-05 15:48:00,93.1,81.4,30.05,SE,138,0.9,4.6,69,0.00,CLR,,0.00,WeatherDisplay:10.37,2013-07-05 19:48:00,
2013-07-05 15:53:00,93.3,81.6,30.05,SW,221,5.1,11.5,69,0.00,CLR,,0.00,WeatherDisplay:10.37,2013-07-05 19:53:00,
2013-07-05 15:58:00,93.3,81.6,30.05,South,188,5.6,12.0,69,0.00,CLR,,0.00,WeatherDisplay:10.37,2013-07-05 19:58:00,
2013-07-05 16:03:00,93.2,82.0,30.05,WNW,285,4.4,9.2,70,0.00,CLR,,0.00,WeatherDisplay:10.37,2013-07-05 20:03:00,
2013-07-05 16:08:00,93.2,82.0,30.05,WSW,250,3.1,7.0,70,0.00,CLR,,0.00,WeatherDisplay:10.37,2013-07-05 20:08:00,
2013-07-05 16:13:00,93.4,81.7,30.05,North,352,2.8,9.2,69,0.00,CLR,,0.00,WeatherDisplay:10.37,2013-07-05 20:13:00,
2013-07-05 16:18:00,93.4,81.3,30.04,WSW,252,5.6,12.7,68,0.00,CLR,,0.00,WeatherDisplay:10.37,2013-07-05 20:18:00,
2013-07-05 16:23:00,93.3,81.2,30.05,West,274,5.9,11.5,68,0.00,CLR,,0.00,WeatherDisplay:10.37,2013-07-05 20:23:00,
2013-07-05 16:29:00,93.2,81.5,30.04,SW,218,3.0,12.7,69,0.00,CLR,,0.00,WeatherDisplay:10.37,2013-07-05 20:29:00,
2013-07-05 16:34:00,93.1,80.5,30.04,WSW,255,7.8,13.8,67,0.00,CLR,,0.00,WeatherDisplay:10.37,2013-07-05 20:34:00,
2013-07-05 16:39:00,93.1,82.3,30.04,West,266,6.4,13.0,71,0.00,CLR,,0.00,WeatherDisplay:10.37,2013-07-05 20:39:00,
2013-07-05 16:44:00,92.8,80.2,30.04,South,185,1.8,6.9,67,0.00,CLR,,0.00,WeatherDisplay:10.37,2013-07-05 20:44:00,
2013-07-05 16:49:00,92.9,80.7,30.04,SW,224,9.0,13.0,68,0.00,CLR,CLR,0.00,WeatherDisplay:10.37,2013-07-05 20:49:00,
2013-07-05 16:54:00,92.7,80.2,30.05,SW,223,8.0,15.0,67,0.00,CLR,CLR,0.00,WeatherDisplay:10.37,2013-07-05 20:54:00,
2013-07-05 16:59:00,92.3,79.8,30.05,SW,231,2.0,9.0,67,0.00,CLR,CLR,0.00,WeatherDisplay:10.37,2013-07-05 20:59:00,
2013-07-05 17:04:00,92.4,80.3,30.04,WSW,250,1.0,12.0,68,0.00,CLR,CLR,0.00,WeatherDisplay:10.37,2013-07-05 21:04:00,
2013-07-05 17:09:00,92.4,80.3,30.04,WSW,245,2.0,8.0,68,0.00,CLR,CLR,0.00,WeatherDisplay:10.37,2013-07-05 21:09:00,
2013-07-05 17:14:00,92.3,80.7,30.04,South,185,3.6,6.9,69,0.00,CLR,,0.00,WeatherDisplay:10.37,2013-07-05 21:14:00,
2013-07-05 17:20:00,92.0,80.4,30.04,South,181,2.5,6.9,69,0.00,CLR,,0.00,WeatherDisplay:10.37,2013-07-05 21:20:00,
2013-07-05 17:25:00,91.8,80.6,30.04,South,176,4.3,6.9,70,0.00,CLR,,0.00,WeatherDisplay:10.37,2013-07-05 21:25:00,
2013-07-05 17:30:00,91.7,81.0,30.04,WSW,247,2.8,8.0,71,0.00,CLR,,0.00,WeatherDisplay:10.37,2013-07-05 21:30:00,
2013-07-05 17:35:00,91.4,80.7,30.04,WSW,243,6.3,17.3,71,0.00,CLR,,0.00,WeatherDisplay:10.37,2013-07-05 21:35:00,
2013-07-05 17:40:00,91.1,80.4,30.04,SSW,195,5.5,10.4,71,0.00,CLR,,0.00,WeatherDisplay:10.37,2013-07-05 21:40:00,
2013-07-05 17:45:00,90.9,80.6,30.04,SW,233,6.0,8.1,72,0.00,CLR,,0.00,WeatherDisplay:10.37,2013-07-05 21:45:00,
2013-07-05 17:50:00,90.6,80.3,30.04,SW,229,4.1,9.2,72,0.00,CLR,,0.00,WeatherDisplay:10.37,2013-07-05 21:50:00,
2013-07-05 17:55:00,90.4,80.1,30.04,SSW,193,5.2,12.7,72,0.00,CLR,,0.00,WeatherDisplay:10.37,2013-07-05 21:55:00,
2013-07-05 18:00:00,90.3,80.0,30.04,WSW,250,7.5,14.0,72,0.00,CLR,,0.00,WeatherDisplay:10.37,2013-07-05 22:00:00,
2013-07-05 18:06:00,90.1,79.4,30.03,WSW,247,3.6,7.0,71,0.00,CLR,,0.00,WeatherDisplay:10.37,2013-07-05 22:06:00,
2013-07-05 18:11:00,90.1,79.8,30.03,SSW,193,4.1,10.0,72,0.00,CLR,,0.00,WeatherDisplay:10.37,2013-07-05 22:11:00,
2013-07-05 18:16:00,89.8,80.0,30.03,SW,231,5.1,9.2,73,0.00,CLR,,0.00,WeatherDisplay:10.37,2013-07-05 22:16:00,
2013-07-05 18:21:00,89.6,80.2,30.03,WSW,248,4.6,8.1,74,0.00,CLR,,0.00,WeatherDisplay:10.37,2013-07-05 22:21:00,
2013-07-05 18:26:00,89.5,80.9,30.03,WSW,253,3.2,6.9,76,0.00,CLR,,0.00,WeatherDisplay:10.37,2013-07-05 22:26:00,
2013-07-05 18:32:00,89.3,80.3,30.03,NW,306,2.6,6.9,75,0.00,CLR,,0.00,WeatherDisplay:10.37,2013-07-05 22:32:00,
2013-07-05 18:37:00,89.3,80.3,30.03,SSW,212,2.0,6.0,75,0.00,CLR,,0.00,WeatherDisplay:10.37,2013-07-05 22:37:00,
2013-07-05 18:42:00,89.3,80.3,30.03,SSW,199,3.0,9.0,75,0.00,CLR,,0.00,WeatherDisplay:10.37,2013-07-05 22:42:00,
2013-07-05 18:45:00,89.2,80.2,30.03,WSW,250,3.8,5.8,75,0.00,CLR,,0.00,WeatherDisplay:10.37,2013-07-05 22:45:00,
2013-07-05 18:50:00,89.1,80.5,30.03,SSW,199,4.7,8.1,76,0.00,CLR,,0.00,WeatherDisplay:10.37,2013-07-05 22:50:00,
2013-07-05 18:55:00,88.9,80.3,30.03,SW,232,2.7,6.0,76,0.00,CLR,,0.00,WeatherDisplay:10.37,2013-07-05 22:55:00,
2013-07-05 19:00:00,88.7,79.8,30.03,SSW,198,6.5,8.1,75,0.00,CLR,,0.00,WeatherDisplay:10.37,2013-07-05 23:00:00,
2013-07-05 19:01:00,88.7,79.8,30.03,WSW,258,3.8,17.3,75,0.00,CLR,,0.00,WeatherDisplay:10.37,2013-07-05 23:01:00,
2013-07-05 19:06:00,88.6,79.7,30.03,SSW,195,4.2,6.9,75,0.00,CLR,,0.00,WeatherDisplay:10.37,2013-07-05 23:06:00,
2013-07-05 19:11:00,88.5,80.0,30.03,WSW,253,1.7,3.5,76,0.00,CLR,,0.00,WeatherDisplay:10.37,2013-07-05 23:11:00,
2013-07-05 19:17:00,88.2,80.1,30.03,WSW,241,1.9,5.8,77,0.00,CLR,,0.00,WeatherDisplay:10.37,2013-07-05 23:17:00,
2013-07-05 19:22:00,88.0,79.9,30.03,WSW,244,2.0,11.0,77,0.00,CLR,,0.00,WeatherDisplay:10.37,2013-07-05 23:22:00,
2013-07-05 19:27:00,88.0,79.9,30.03,South,191,3.9,8.1,77,0.00,CLR,,0.00,WeatherDisplay:10.37,2013-07-05 23:27:00,
2013-07-05 19:32:00,87.6,79.9,30.03,South,188,4.1,8.1,78,0.00,CLR,,0.00,WeatherDisplay:10.37,2013-07-05 23:32:00,
2013-07-05 19:37:00,87.6,79.9,30.03,SW,226,4.4,11.5,78,0.00,CLR,,0.00,WeatherDisplay:10.37,2013-07-05 23:37:00,
2013-07-05 19:42:00,87.4,80.1,30.02,SW,226,4.2,7.0,79,0.00,CLR,,0.00,WeatherDisplay:10.37,2013-07-05 23:42:00,
2013-07-05 19:47:00,87.2,80.3,30.03,SW,223,5.0,10.4,80,0.00,CLR,,0.00,WeatherDisplay:10.37,2013-07-05 23:47:00,
2013-07-05 19:48:00,87.1,80.2,30.03,SW,235,4.7,8.0,80,0.00,CLR,,0.00,WeatherDisplay:10.37,2013-07-05 23:48:00,
2013-07-05 19:53:00,87.0,80.8,30.03,South,188,4.7,9.2,82,0.00,CLR,,0.00,WeatherDisplay:10.37,2013-07-05 23:53:00,
2013-07-05 19:58:00,86.7,81.3,30.03,WSW,250,2.2,6.9,84,0.00,CLR,,0.00,WeatherDisplay:10.37,2013-07-05 23:58:00,
2013-07-05 20:03:00,86.5,81.4,30.03,SSW,212,3.7,9.2,85,0.00,CLR,,0.00,WeatherDisplay:10.37,2013-07-06 00:03:00,
2013-07-05 20:08:00,86.4,81.4,30.02,South,188,5.5,9.2,85,0.00,CLR,,0.00,WeatherDisplay:10.37,2013-07-06 00:08:00,
2013-07-05 20:13:00,86.0,81.3,30.03,WSW,240,3.6,11.5,86,0.00,CLR,,0.00,WeatherDisplay:10.37,2013-07-06 00:13:00,
2013-07-05 20:19:00,85.9,81.2,30.03,ESE,120,0.7,9.2,86,0.00,CLR,,0.00,WeatherDisplay:10.37,2013-07-06 00:19:00,
2013-07-05 20:24:00,85.8,80.8,30.03,SSW,213,2.7,8.0,85,0.00,CLR,,0.00,WeatherDisplay:10.37,2013-07-06 00:24:00,
2013-07-05 20:29:00,85.5,80.5,30.03,South,182,4.4,8.0,85,0.00,CLR,,0.00,WeatherDisplay:10.37,2013-07-06 00:29:00,
2013-07-05 20:34:00,85.5,80.5,30.04,South,189,4.3,6.0,85,0.00,CLR,,0.00,WeatherDisplay:10.37,2013-07-06 00:34:00,
2013-07-05 20:39:00,85.3,80.3,30.04,WSW,239,4.5,9.0,85,0.00,CLR,,0.00,WeatherDisplay:10.37,2013-07-06 00:39:00,
2013-07-05 20:40:00,85.3,80.3,30.04,SSW,200,5.8,10.0,85,0.00,CLR,,0.00,WeatherDisplay:10.37,2013-07-06 00:40:00,
2013-07-05 20:45:00,85.2,80.2,30.03,SW,216,7.9,11.5,85,0.00,CLR,,0.00,WeatherDisplay:10.37,2013-07-06 00:45:00,
2013-07-05 20:50:00,85.1,80.1,30.04,SW,229,4.2,7.0,85,0.00,CLR,,0.00,WeatherDisplay:10.37,2013-07-06 00:50:00,
2013-07-05 20:55:00,84.9,79.9,30.04,SW,217,4.9,10.4,85,0.00,CLR,,0.00,WeatherDisplay:10.37,2013-07-06 00:55:00,
2013-07-05 21:00:00,84.8,79.8,30.04,WSW,241,2.8,9.2,85,0.00,CLR,,0.00,WeatherDisplay:10.37,2013-07-06 01:00:00,
2013-07-05 21:06:00,84.6,79.6,30.03,SW,234,2.0,4.6,85,0.00,CLR,,0.00,WeatherDisplay:10.37,2013-07-06 01:06:00,
2013-07-05 21:11:00,84.5,79.5,30.04,SSW,197,5.2,8.1,85,0.00,CLR,,0.00,WeatherDisplay:10.37,2013-07-06 01:11:00,
2013-07-05 21:16:00,84.4,79.7,30.04,South,187,5.9,11.5,86,0.00,CLR,,0.00,WeatherDisplay:10.37,2013-07-06 01:16:00,
2013-07-05 21:21:00,84.3,80.0,30.04,SSW,198,4.7,10.0,87,0.00,CLR,,0.00,WeatherDisplay:10.37,2013-07-06 01:21:00,
2013-07-05 21:26:00,84.2,79.9,30.05,South,186,7.7,10.0,87,0.00,CLR,,0.00,WeatherDisplay:10.37,2013-07-06 01:26:00,
2013-07-05 21:31:00,84.0,80.1,30.05,WSW,246,5.3,9.0,88,0.00,CLR,,0.00,WeatherDisplay:10.37,2013-07-06 01:31:00,
2013-07-05 21:36:00,83.9,80.3,30.05,WSW,238,4.1,5.0,89,0.00,CLR,,0.00,WeatherDisplay:10.37,2013-07-06 01:36:00,
2013-07-05 21:42:00,83.6,80.0,30.06,SSW,197,7.7,11.5,89,0.00,CLR,,0.00,WeatherDisplay:10.37,2013-07-06 01:42:00,
2013-07-05 21:47:00,83.6,80.4,30.05,West,277,4.3,10.4,90,0.00,CLR,,0.00,WeatherDisplay:10.37,2013-07-06 01:47:00,
2013-07-05 21:52:00,83.5,80.3,30.05,SSW,203,5.6,11.5,90,0.00,CLR,,0.00,WeatherDisplay:10.37,2013-07-06 01:52:00,
2013-07-05 21:57:00,83.3,80.1,30.06,South,190,6.9,14.0,90,0.00,CLR,,0.00,WeatherDisplay:10.37,2013-07-06 01:57:00,
2013-07-05 22:02:00,83.1,79.9,30.06,SW,224,6.5,10.4,90,0.00,CLR,,0.00,WeatherDisplay:10.37,2013-07-06 02:02:00,
2013-07-05 22:07:00,83.1,80.2,30.05,SW,217,6.1,9.2,91,0.00,CLR,,0.00,WeatherDisplay:10.37,2013-07-06 02:07:00,
2013-07-05 22:13:00,82.9,80.3,30.05,WSW,251,5.9,10.0,92,0.00,CLR,,0.00,WeatherDisplay:10.37,2013-07-06 02:13:00,
2013-07-05 22:18:00,82.7,80.1,30.05,South,173,5.4,10.4,92,0.00,CLR,,0.00,WeatherDisplay:10.37,2013-07-06 02:18:00,
2013-07-05 22:23:00,82.6,80.4,30.04,SSW,212,4.2,11.5,93,0.00,CLR,,0.00,WeatherDisplay:10.37,2013-07-06 02:23:00,
2013-07-05 22:28:00,82.4,80.2,30.04,SW,215,5.1,9.2,93,0.00,CLR,,0.00,WeatherDisplay:10.37,2013-07-06 02:28:00,
2013-07-05 22:33:00,82.3,80.4,30.05,South,183,5.6,8.1,94,0.00,CLR,,0.00,WeatherDisplay:10.37,2013-07-06 02:33:00,
2013-07-05 22:39:00,82.2,80.3,30.04,SW,219,4.9,10.4,94,0.00,CLR,,0.00,WeatherDisplay:10.37,2013-07-06 02:39:00,
2013-07-05 22:44:00,82.1,80.2,30.04,SW,232,3.0,6.9,94,0.00,CLR,,0.00,WeatherDisplay:10.37,2013-07-06 02:44:00,
2013-07-05 22:49:00,81.9,80.0,30.04,SSW,199,5.0,8.0,94,0.00,CLR,,0.00,WeatherDisplay:10.37,2013-07-06 02:49:00,
2013-07-05 22:54:00,82.0,80.1,30.04,SW,224,3.0,12.0,94,0.00,CLR,CLR,0.00,WeatherDisplay:10.37,2013-07-06 02:54:00,
2013-07-05 22:59:00,81.8,79.9,30.04,SSW,212,5.7,10.4,94,0.00,CLR,,0.00,WeatherDisplay:10.37,2013-07-06 02:59:00,
2013-07-05 23:04:00,81.8,79.9,30.04,SSW,213,5.0,12.0,94,0.00,CLR,CLR,0.00,WeatherDisplay:10.37,2013-07-06 03:04:00,
2013-07-05 23:09:00,81.7,79.8,30.04,SSW,213,7.0,12.0,94,0.00,CLR,CLR,0.00,WeatherDisplay:10.37,2013-07-06 03:09:00,
2013-07-05 23:14:00,81.7,79.8,30.04,SW,214,6.0,12.0,94,0.00,CLR,CLR,0.00,WeatherDisplay:10.37,2013-07-06 03:14:00,
2013-07-05 23:19:00,81.7,79.8,30.04,SW,227,2.0,8.0,94,0.00,CLR,CLR,0.00,WeatherDisplay:10.37,2013-07-06 03:19:00,
2013-07-05 23:25:00,81.6,80.0,30.04,WSW,237,2.1,6.0,95,0.00,CLR,,0.00,WeatherDisplay:10.37,2013-07-06 03:25:00,
2013-07-05 23:28:00,81.5,79.9,30.04,SW,223,2.7,9.2,95,0.00,CLR,,0.00,WeatherDisplay:10.37,2013-07-06 03:28:00,
2013-07-05 23:33:00,81.3,79.7,30.05,WSW,238,4.4,6.9,95,0.00,CLR,,0.00,WeatherDisplay:10.37,2013-07-06 03:33:00,
2013-07-05 23:38:00,81.3,79.7,30.05,SSW,213,4.0,10.0,95,0.00,CLR,,0.00,WeatherDisplay:10.37,2013-07-06 03:38:00,
2013-07-05 23:39:00,81.4,79.8,30.05,SSW,194,5.5,10.4,95,0.00,CLR,,0.00,WeatherDisplay:10.37,2013-07-06 03:39:00,
2013-07-05 23:44:00,81.2,79.6,30.05,SW,229,4.5,5.8,95,0.00,CLR,,0.00,WeatherDisplay:10.37,2013-07-06 03:44:00,
2013-07-05 23:49:00,81.0,79.4,30.05,South,172,4.2,7.0,95,0.00,CLR,,0.00,WeatherDisplay:10.37,2013-07-06 03:49:00,
2013-07-05 23:54:00,81.0,79.5,30.06,SW,218,2.0,8.0,95,0.00,CLR,CLR,0.00,WeatherDisplay:10.37,2013-07-06 03:54:00,
2013-07-05 23:59:00,80.9,79.3,30.05,SW,217,3.0,8.0,95,0.00,CLR,CLR,0.00,WeatherDisplay:10.37,2013-07-06 03:59:00,